Temp
-8 -9 -9 -10 -10 -9 -9 -9 -9 -9 -9 -9 -9 -9 -9 -9 -9 -9 -9 -9 -10 -10 -10 -10 -10 -10 -10 -10 -10 -10 -10 -9 -9 -9 -9 -9 -9 -9 -9 -10 -10 -10 -10
-9 -10 -10 -10 -10 -10 -10 -10 -10 -9 -9 -10 -10 -10 -9 -9 -9 -9 -9 -10 -10 -10 -10 -10 -10 -10 -10 -10 -10 -9 -9 -9 -9 -9 -9 -10 -10 -10 -10 -10 -10 -11 -10
-10 -10 -10 -10 -10 -10 -10 -10 -10 -10 -10 -10 -10 -10 -10 -10 -10 -9 -10 -10 -10 -10 -10 -10 -10 -10 -10 -10 -10 -9 -9 -9 -9 -10 -10 -10 -10 -10 -10 -10 -10 -11 -11
-10 -11 -11 -11 -10 -10 -10 -10 -10 -10 -10 -10 -10 -10 -10 -10 -10 -10 -10 -10 -10 -10 -10 -10 -10 -10 -10 -10 -10 -10 -9 -9 -10 -10 -11 -11 -10 -10 -10 -11 -10 -11 -11
-11 -11 -11 -11 -10 -10 -10 -10 -10 -10 -10 -10 -10 -10 -10 -10 -11 -10 -11 -10 -10 -10 -10 -11 -11 -10 -10 -10 -10 -10 -10 -9 -9 -9 -11 -11 -11 -10 -11 -11 -11 -11 -11
-11 -11 -11 -11 -10 -10 -10 -10 -10 -10 -10 -10 -10 -10 -10 -10 -10 -11 -11 -11 -11 -11 -11 -11 -11 -11 -10 -10 -10 -10 -10 -10 -10 -9 -10 -10 -11 -11 -11 -11 -11 -11 -11
-11 -11 -11 -11 -10 -10 -10 -10 -11 -11 -10 -10 -11 -11 -11 -11 -11 -11 -11 -11 -11 -11 -11 -11 -11 -11 -11 -11 -11 -11 -10 -10 -10 -9 -9 -9 -11 -10 -11 -11 -11 -11 -11
-11 -11 -11 -11 -11 -11 -11 -11 -11 -11 -11 -11 -11 -11 -11 -11 -11 -11 -11 -11 -11 -11 -11 -11 -12 -11 -11 -11 -11 -11 -11 -10 -10 -10 -9 -9 -10 -10 -11 -11 -11 -11 -12
-11 -11 -11 -11 -11 -11 -11 -11 -11 -11 -11 -11 -11 -11 -11 -11 -11 -11 -11 -11 -11 -11 -12 -12 -12 -12 -11 -11 -11 -11 -11 -11 -10 -10 -10 -10 -11 -11 -11 -11 -11 -11 -11
-12 -12 -12 -11 -11 -11 -11 -11 -11 -11 -11 -11 -11 -11 -11 -11 -11 -11 -11 -12 -11 -12 -12 -12 -12 -12 -12 -11 -11 -12 -11 -12 -11 -10 -10 -10 -11 -11 -12 -11 -11 -11 -12
-12 -12 -12 -12 -12 -11 -11 -11 -11 -11 -11 -11 -11 -11 -11 -11 -11 -11 -11 -12 -11 -12 -12 -12 -12 -12 -12 -12 -12 -12 -11 -11 -11 -11 -11 -11 -11 -11 -12 -12 -11 -11 -12
-12 -12 -12 -12 -12 -12 -12 -12 -11 -12 -11 -11 -11 -11 -11 -11 -11 -11 -11 -12 -12 -12 -12 -12 -12 -12 -12 -12 -12 -12 -12 -11 -11 -10 -11 -11 -12 -11 -12 -12 -11 -12 -12
-12 -12 -12 -12 -12 -12 -12 -12 -11 -11 -11 -11 -11 -11 -11 -11 -11 -11 -12 -11 -12 -12 -12 -12 -12 -11 -12 -12 -12 -12 -12 -12 -11 -11 -10 -11 -13 -13 -12 -11 -12 -12 -12
-12 -12 -12 -12 -11 -11 -11 -11 -11 -11 -11 -11 -11 -11 -11 -11 -11 -11 -11 -11 -11 -12 -12 -12 -12 -12 -12 -12 -11 -11 -12 -12 -12 -12 -11 -11 -12 -12 -12 -12 -12 -12 -12
-12 -12 -12 -12 -11 -11 -11 -11 -11 -11 -11 -11 -11 -11 -11 -11 -11 -11 -11 -11 -11 -12 -12 -12 -12 -12 -12 -12 -12 -11 -11 -11 -11 -11 -11 -11 -11 -11 -12 -13 -12 -12 -12
-12 -12 -12 -11 -11 -11 -11 -11 -11 -11 -11 -11 -11 -11 -11 -11 -11 -11 -11 -11 -12 -11 -11 -12 -12 -12 -12 -12 -11 -12 -11 -10 -12 -11 -11 -11 -11 -11 -11 -12 -12 -12 -12
-12 -12 -12 -11 -11 -11 -11 -11 -11 -11 -11 -11 -11 -11 -11 -11 -12 -12 -12 -12 -12 -12 -12 -12 -12 -12 -13 -12 -12 -11 -12 -12 -12 -11 -11 -12 -11 -11 -12 -13 -13 -13 -13
-12 -11 -11 -11 -11 -11 -11 -11 -12 -12 -12 -12 -12 -12 -12 -12 -12 -12 -12 -13 -13 -12 -12 -12 -12 -12 -12 -13 -13 -12 -13 -12 -12 -13 -12 -12 -13 -13 -11 -12 -12 -13 -13
-11 -11 -11 -12 -11 -11 -11 -11 -11 -11 -11 -12 -12 -13 -13 -13 -14 -14 -13 -13 -13 -13 -13 -13 -13 -13 -13 -13 -13 -13 -13 -13 -13 -13 -12 -12 -12 -13 -12 -13 -13 -12 -12
-12 -12 -12 -11 -11 -11 -11 -11 -11 -12 -12 -12 -13 -13 -13 -14 -14 -14 -14 -14 -14 -14 -14 -14 -14 -14 -13 -14 -14 -13 -13 -13 -13 -13 -13 -12 -12 -12 -13 -13 -13 -13 -13
-12 -12 -12 -12 -12 -12 -12 -12 -13 -13 -14 -14 -15 -15 -15 -15 -15 -15 -15 -15 -15 -15 -14 -14 -14 -14 -14 -14 -14 -14 -14 -13 -13 -13 -13 -13 -12 -12 -12 -12 -12 -13 -13
-13 -13 -13 -13 -13 -13 -13 -13 -13 -14 -14 -15 -16 -16 -16 -16 -16 -16 -15 -15 -15 -15 -15 -15 -14 -14 -14 -14 -14 -14 -14 -14 -13 -13 -13 -13 -13 -13 -13 -13 -12 -13 -13
-13 -13 -13 -13 -13 -14 -14 -15 -15 -16 -16 -16 -17 -17 -17 -17 -16 -16 -16 -16 -16 -15 -15 -15 -15 -15 -14 -14 -14 -14 -14 -14 -14 -14 -14 -13 -13 -13 -13 -13 -13 -12 -13
-14 -15 -15 -15 -15 -15 -16 -16 -17 -17 -17 -18 -18 -18 -18 -18 -18 -18 -18 -17 -17 -17 -17 -16 -16 -16 -15 -15 -14 -14 -14 -14 -14 -14 -14 -14 -13 -13 -13 -13 -13 -13 -12
-15 -15 -16 -16 -16 -17 -17 -18 -18 -18 -19 -19 -19 -19 -19 -19 -19 -19 -18 -18 -18 -18 -17 -17 -17 -17 -16 -16 -16 -15 -15 -15 -15 -15 -14 -14 -14 -14 -14 -13 -13 -13 -12
-16 -16 -17 -17 -18 -18 -19 -19 -19 -19 -19 -19 -19 -19 -18 -18 -18 -18 -18 -18 -18 -17 -18 -18 -18 -17 -17 -17 -17 -17 -16 -16 -16 -16 -15 -15 -15 -15 -14 -14 -14 -14 -13
Height
5852 5863 5864 5865 5864 5863 5862 5862 5861 5860 5860 5858 5858 5856 5855 5854 5853 5853 5853 5852 5850 5849 5847 5846 5846 5844 5843 5842 5842 5842 5841 5841 5841 5841 5841 5841 5840 5839 5837 5836 5835 5834 5833
5860 5862 5863 5863 5862 5861 5860 5860 5859 5858 5857 5856 5855 5855 5854 5852 5851 5850 5849 5848 5848 5848 5847 5845 5844 5843 5842 5841 5840 5840 5840 5840 5840 5840 5839 5837 5836 5835 5835 5835 5834 5833 5831
5861 5862 5861 5860 5859 5858 5857 5856 5856 5855 5854 5854 5853 5852 5851 5850 5849 5848 5846 5845 5845 5844 5844 5843 5842 5840 5840 5840 5839 5839 5838 5839 5839 5837 5833 5834 5834 5833 5832 5832 5832 5830 5829
5861 5857 5857 5855 5854 5854 5853 5852 5851 5851 5851 5850 5850 5850 5847 5846 5845 5845 5844 5843 5841 5841 5839 5839 5839 5839 5838 5837 5837 5837 5837 5838 5836 5833 5830 5832 5831 5830 5830 5829 5829 5829 5828
5857 5852 5850 5850 5849 5849 5849 5848 5848 5847 5846 5846 5845 5845 5844 5842 5841 5841 5841 5839 5838 5837 5836 5836 5835 5835 5835 5835 5834 5834 5835 5836 5833 5829 5830 5828 5824 5826 5825 5825 5826 5826 5825
5849 5848 5847 5846 5846 5845 5844 5844 5843 5842 5841 5841 5840 5839 5838 5838 5837 5836 5836 5836 5833 5832 5832 5831 5832 5830 5831 5832 5832 5832 5831 5833 5831 5828 5825 5810 5797 5818 5823 5822 5823 5824 5823
5845 5844 5843 5842 5841 5841 5840 5839 5838 5837 5837 5836 5835 5835 5834 5833 5832 5832 5832 5832 5830 5828 5828 5827 5827 5827 5827 5827 5828 5829 5829 5830 5829 5827 5824 5821 5810 5821 5819 5821 5821 5821 5821
5840 5839 5838 5837 5837 5836 5835 5834 5833 5832 5832 5831 5831 5830 5829 5828 5828 5827 5826 5826 5825 5824 5823 5823 5822 5822 5822 5823 5823 5824 5824 5826 5826 5825 5826 5824 5821 5820 5820 5821 5819 5818 5817
5836 5835 5834 5833 5832 5831 5830 5829 5828 5828 5827 5826 5826 5826 5825 5823 5823 5822 5821 5820 5819 5819 5817 5817 5816 5816 5816 5817 5818 5818 5819 5820 5820 5821 5820 5823 5818 5818 5819 5818 5816 5815 5815
5831 5830 5829 5828 5827 5826 5826 5824 5824 5823 5822 5821 5820 5820 5819 5819 5818 5816 5815 5813 5811 5810 5809 5809 5810 5811 5812 5811 5812 5812 5813 5814 5815 5816 5814 5812 5814 5814 5811 5814 5813 5812 5812
5826 5825 5825 5824 5822 5821 5821 5819 5818 5817 5817 5816 5815 5814 5814 5814 5813 5811 5809 5806 5797 5803 5803 5803 5805 5806 5807 5807 5807 5806 5807 5808 5809 5811 5808 5806 5808 5808 5806 5808 5809 5809 5809
5822 5821 5821 5819 5818 5816 5815 5814 5813 5812 5811 5811 5809 5809 5808 5807 5806 5804 5803 5800 5799 5798 5798 5798 5800 5801 5801 5801 5799 5799 5801 5802 5804 5805 5803 5799 5800 5801 5799 5803 5804 5804 5805
5817 5817 5816 5814 5813 5812 5811 5809 5808 5807 5805 5804 5803 5802 5801 5800 5799 5797 5796 5795 5792 5791 5791 5793 5793 5794 5790 5790 5791 5791 5791 5792 5795 5797 5797 5796 5788 5790 5796 5799 5798 5799 5801
5813 5812 5811 5810 5808 5807 5805 5803 5801 5799 5798 5796 5794 5793 5792 5791 5791 5790 5788 5786 5786 5784 5783 5783 5784 5784 5782 5781 5782 5780 5784 5780 5784 5789 5789 5788 5785 5784 5788 5792 5793 5792 5794
5807 5805 5803 5802 5801 5799 5797 5795 5793 5791 5789 5787 5786 5784 5782 5781 5779 5778 5777 5776 5774 5775 5774 5775 5774 5773 5771 5774 5762 5759 5772 5771 5770 5774 5775 5777 5781 5781 5782 5781 5787 5787 5787
5800 5798 5797 5795 5793 5791 5788 5787 5784 5782 5780 5777 5775 5773 5771 5770 5768 5767 5766 5764 5763 5762 5761 5764 5762 5761 5758 5763 5764 5758 5761 5760 5765 5749 5753 5771 5773 5773 5772 5773 5779 5780 5782
5792 5790 5788 5785 5783 5781 5779 5776 5773 5771 5768 5766 5763 5760 5758 5757 5754 5753 5751 5751 5750 5750 5750 5750 5748 5746 5746 5750 5753 5754 5747 5750 5753 5755 5760 5765 5762 5750 5759 5761 5768 5771 5774
5781 5779 5777 5775 5773 5770 5768 5765 5761 5758 5755 5752 5748 5745 5743 5742 5739 5738 5736 5734 5734 5734 5735 5734 5734 5733 5732 5736 5737 5736 5739 5743 5744 5744 5750 5752 5754 5753 5732 5751 5757 5761 5764
5772 5769 5766 5763 5760 5757 5754 5751 5748 5743 5739 5734 5731 5728 5726 5725 5723 5722 5720 5718 5717 5718 5718 5718 5717 5717 5718 5719 5724 5723 5725 5730 5733 5735 5738 5742 5744 5746 5740 5748 5751 5755 5756
5761 5758 5755 5751 5747 5744 5740 5737 5733 5727 5722 5716 5712 5708 5705 5704 5703 5702 5703 5702 5701 5700 5701 5701 5701 5702 5703 5704 5706 5708 5710 5715 5719 5722 5724 5730 5739 5741 5739 5743 5744 5748 5749
5748 5745 5742 5738 5735 5731 5725 5720 5715 5709 5704 5698 5693 5689 5686 5682 5681 5681 5681 5681 5681 5681 5683 5684 5685 5686 5688 5688 5689 5692 5694 5699 5703 5708 5712 5716 5724 5729 5732 5734 5737 5739 5739
5738 5733 5729 5725 5721 5715 5709 5703 5697 5692 5686 5680 5674 5669 5664 5661 5658 5656 5655 5656 5658 5659 5661 5663 5666 5668 5671 5672 5672 5673 5679 5683 5688 5692 5697 5703 5710 5715 5719 5723 5724 5729 5731
5724 5720 5715 5710 5705 5699 5692 5686 5679 5672 5665 5658 5652 5645 5639 5634 5632 5629 5628 5628 5630 5632 5636 5639 5642 5645 5650 5654 5654 5654 5657 5662 5667 5673 5683 5688 5695 5701 5707 5712 5715 5717 5724
5712 5706 5700 5694 5689 5682 5676 5668 5660 5652 5645 5637 5629 5623 5617 5611 5608 5605 5604 5604 5606 5607 5609 5613 5616 5620 5624 5632 5635 5635 5638 5642 5645 5653 5662 5671 5679 5687 5694 5700 5703 5707 5711
5699 5693 5686 5679 5674 5666 5658 5651 5642 5633 5624 5616 5609 5603 5598 5594 5590 5587 5586 5585 5585 5586 5587 5590 5593 5597 5601 5608 5614 5616 5618 5622 5625 5629 5641 5655 5661 5671 5678 5685 5691 5695 5699
5686 5680 5673 5666 5659 5651 5644 5635 5627 5617 5609 5601 5593 5588 5583 5579 5576 5574 5572 5571 5571 5571 5572 5573 5576 5580 5584 5588 5594 5598 5601 5603 5606 5612 5620 5635 5643 5655 5663 5672 5665 5678 5686
Wind_Speed
13 18 17 16 16 15 13 13 12 12 13 13 13 14 13 13 14 15 17 17 16 16 15 16 17 15 14 14 15 15 14 15 15 15 17 18 17 16 14 12 12 11 14
20 19 19 17 18 17 16 15 12 12 13 14 16 16 17 15 14 15 16 17 18 19 18 16 16 15 14 13 13 14 15 14 14 15 16 17 15 12 12 12 11 11 12
20 21 22 20 21 19 16 16 16 14 14 15 16 17 18 19 18 17 18 18 19 18 19 21 18 15 14 15 14 14 14 14 13 15 15 13 13 10 10 12 12 12 12
16 23 23 22 23 22 19 18 18 18 18 17 17 19 19 20 20 21 20 21 20 21 19 19 21 20 16 15 15 14 14 13 13 14 15 13 12 10 10 10 12 13 13
22 24 25 24 25 24 23 22 22 21 21 20 20 21 22 22 23 23 23 22 23 23 23 22 19 21 22 19 17 16 14 13 13 17 13 16 9 9 9 10 13 12 13
24 25 26 27 27 28 28 27 26 26 25 24 21 21 22 22 23 24 24 25 25 26 25 25 23 21 20 20 20 18 16 15 14 17 17 13 7 10 11 10 13 13 13
26 29 29 29 30 30 31 30 29 28 27 25 24 23 23 23 24 24 24 25 27 28 28 26 26 24 22 19 18 19 18 15 16 14 17 16 18 16 12 15 13 14 12
28 30 30 31 32 31 31 31 29 29 30 27 26 26 26 24 25 25 27 26 26 28 29 30 28 27 25 23 22 20 19 17 15 17 16 17 19 17 16 17 15 15 13
28 28 30 30 31 31 31 30 30 31 31 30 28 27 27 26 26 27 28 28 26 28 31 34 33 30 28 26 27 27 24 20 18 18 19 15 19 20 18 16 17 17 16
26 27 28 29 30 31 31 31 30 31 30 30 30 30 29 28 28 28 28 31 32 30 30 31 33 33 32 31 30 30 29 26 23 19 21 21 21 20 18 18 18 17 17
25 27 27 27 28 29 29 31 31 31 32 31 31 32 32 31 30 31 31 35 33 32 29 32 32 27 32 35 35 36 33 31 29 24 25 26 29 19 18 19 21 19 19
26 27 26 26 28 29 30 31 32 33 33 33 34 34 35 36 36 36 35 37 35 34 36 31 31 29 28 33 37 40 39 38 34 30 29 30 29 23 20 23 22 22 21
21 23 27 29 31 33 34 36 37 39 39 40 41 40 40 42 43 43 43 42 43 39 38 35 35 36 36 34 35 37 37 36 38 40 36 32 36 27 26 27 25 23 23
27 31 33 34 35 36 38 39 41 43 46 47 48 48 49 49 49 49 50 51 49 49 48 45 45 42 40 42 40 39 38 37 33 42 40 40 36 32 29 30 28 25 24
33 35 36 37 39 40 41 42 42 44 44 45 46 49 51 51 52 53 56 58 57 57 56 53 52 51 51 45 50 43 38 38 36 32 34 38 37 43 31 28 31 28 25
37 38 40 41 41 42 44 46 47 48 50 51 52 53 54 55 55 56 56 55 57 59 58 57 59 59 60 56 50 49 45 44 44 41 28 41 41 35 35 31 33 30 28
41 42 43 45 46 48 49 51 52 53 54 55 56 57 58 58 59 59 60 61 61 60 59 57 57 59 61 59 57 58 59 53 45 29 44 38 40 36 45 39 37 35 33
44 45 46 49 51 52 54 55 57 58 59 61 62 62 64 64 64 64 64 64 63 63 63 63 61 61 62 58 59 61 54 55 55 54 51 48 44 44 36 41 41 39 36
47 49 50 51 53 55 57 60 62 65 68 69 69 68 68 66 66 66 67 67 66 65 65 64 63 64 62 62 59 61 59 56 57 59 57 52 47 46 36 31 32 48 31
52 53 54 55 57 59 61 64 68 72 75 76 76 77 77 75 71 70 66 65 66 66 65 66 66 64 65 62 61 62 63 61 60 58 57 59 51 45 46 34 32 28 27
54 55 57 60 62 64 68 72 75 77 78 78 77 78 76 75 77 73 69 67 65 66 67 66 67 66 64 64 65 64 64 62 62 61 59 58 53 50 48 46 41 33 35
57 58 61 64 66 70 74 78 80 81 82 82 81 79 79 79 78 77 76 76 74 71 68 68 70 71 70 66 67 68 67 67 66 64 60 58 54 52 50 46 47 39 38
59 61 65 68 72 74 78 80 81 82 82 79 75 74 74 75 75 74 74 73 73 72 70 70 71 73 74 74 74 74 73 71 69 68 63 61 56 54 52 48 48 45 40
60 63 66 71 76 77 80 80 77 76 75 74 74 72 69 67 64 64 65 65 66 67 69 69 70 72 73 71 73 76 78 78 75 72 68 64 61 58 55 52 50 48 46
62 65 69 73 76 76 75 72 72 70 67 64 62 60 58 56 53 50 49 49 50 51 54 58 61 63 66 69 73 78 78 78 78 75 73 66 61 56 52 52 53 51 52
64 67 70 70 70 69 70 66 63 64 63 62 59 55 52 49 45 43 41 41 42 43 44 47 49 52 55 57 58 61 67 71 72 71 75 68 65 61 57 51 50 52 51
Wind_Direction
295 285 294 300 303 300 294 296 303 313 322 321 315 309 301 298 295 291 289 288 288 290 291 297 301 294 290 287 292 293 293 297 301 306 307 305 302 307 306 303 302 304 311
284 292 299 305 306 304 299 297 305 308 311 316 316 312 310 304 298 295 293 293 295 292 294 296 300 301 295 291 291 293 295 295 297 299 298 294 290 294 299 294 295 302 306
297 304 301 297 300 300 301 295 300 305 306 307 311 311 309 305 302 302 298 297 293 290 295 298 298 297 298 299 293 289 288 292 297 297 286 286 289 292 291 290 292 299 310
306 293 297 290 288 290 294 296 297 298 301 302 302 301 302 302 301 295 296 296 293 292 291 293 298 298 291 291 293 288 288 288 293 289 285 285 284 286 284 286 294 300 312
289 281 280 281 285 291 295 294 293 293 295 296 294 294 293 295 295 294 290 289 292 289 290 291 290 296 297 290 287 286 283 283 283 287 289 290 266 287 290 286 289 293 305
277 282 282 281 287 291 292 293 292 295 297 297 294 292 291 290 292 292 292 285 284 285 284 287 289 288 290 293 290 285 280 282 280 291 299 296 86 320 298 276 277 283 295
273 278 283 288 290 292 294 294 295 295 295 297 297 294 293 289 290 290 289 288 284 280 282 283 284 285 286 282 283 288 287 279 280 281 289 287 301 289 295 282 271 271 278
275 282 286 289 291 294 294 297 298 298 296 296 297 296 293 290 288 288 286 282 282 279 279 278 277 281 282 283 279 274 280 282 276 273 272 280 277 287 279 279 273 263 263
281 284 287 289 291 292 291 292 293 293 293 295 294 293 292 289 288 286 286 283 280 278 273 277 271 272 275 278 281 279 278 274 270 268 269 266 264 265 269 270 271 263 258
282 282 281 284 286 288 289 290 291 293 295 296 296 295 292 289 285 285 285 281 273 267 269 272 270 270 273 273 274 276 276 276 271 269 269 256 253 261 264 273 269 264 258
272 275 279 282 285 287 289 290 293 294 295 297 294 293 292 288 289 288 287 285 287 272 269 271 285 273 276 276 275 274 273 272 273 271 269 266 276 254 259 267 270 267 259
272 276 277 278 279 281 284 286 288 288 287 290 290 292 291 290 290 291 292 291 293 291 292 293 286 283 279 277 274 273 271 270 269 267 265 270 265 261 259 258 262 266 261
273 274 278 282 283 284 286 286 286 286 286 286 286 285 285 285 286 286 288 287 290 288 287 286 285 290 285 278 276 276 276 277 270 269 266 262 263 245 256 256 254 258 261
280 283 285 284 284 285 285 284 284 284 283 282 282 281 281 280 278 276 278 282 282 283 284 284 285 281 275 280 278 273 273 269 277 275 274 261 260 266 250 254 252 249 254
283 283 284 285 285 286 286 285 284 284 284 284 283 282 282 281 280 279 277 276 277 276 274 275 277 277 277 274 277 253 271 273 265 267 266 268 263 258 250 247 256 253 247
283 285 286 287 286 284 284 283 283 283 282 283 283 281 279 277 278 278 277 276 275 276 277 273 271 271 274 272 268 281 275 278 270 279 268 279 273 264 268 248 246 250 252
285 285 284 284 284 285 286 286 285 284 283 283 282 282 280 278 276 275 273 273 273 272 271 271 273 271 271 270 268 265 266 272 258 272 270 268 277 254 254 241 240 241 246
285 285 285 285 286 287 287 287 287 286 285 284 283 283 282 280 277 275 274 273 271 271 270 270 268 267 270 270 270 269 268 265 268 271 273 273 281 282 258 245 247 237 244
284 284 285 287 289 291 293 293 292 291 287 286 285 285 284 283 280 277 276 274 272 271 270 269 268 268 267 267 266 268 268 265 265 266 267 269 275 281 268 282 284 264 262
287 288 289 290 289 289 288 287 286 285 285 285 286 287 286 285 285 281 277 274 272 270 268 268 268 267 267 266 265 265 265 265 266 266 267 265 265 268 273 272 278 278 275
289 289 289 289 290 291 290 289 289 289 289 290 290 288 288 286 285 283 279 276 271 267 266 266 264 265 265 266 266 266 265 265 264 266 265 264 263 262 264 270 268 269 271
291 290 290 291 292 291 291 290 290 291 292 291 291 290 288 286 284 281 278 275 272 269 266 263 262 262 262 265 267 267 266 265 265 264 263 264 261 261 262 265 267 265 263
291 292 293 294 295 294 294 295 296 297 296 295 292 288 285 281 277 273 270 268 266 264 262 262 262 260 258 260 263 265 266 265 263 263 262 262 262 261 259 259 260 263 258
297 298 299 298 297 298 299 300 300 298 295 292 289 287 286 284 282 280 276 272 269 265 262 259 255 253 254 253 256 259 261 262 261 259 259 258 258 256 255 255 253 255 255
300 301 301 301 302 302 302 302 302 301 298 296 294 293 290 288 285 281 277 273 270 266 262 258 255 252 251 250 249 250 254 256 258 258 255 252 253 254 251 250 250 251 250
303 303 304 304 303 304 306 307 305 303 301 300 297 295 291 288 286 283 280 275 271 269 265 262 258 255 254 254 251 251 253 255 258 259 257 252 251 246 248 245 241 244 247